SCOUT A DEB

Satellite information

Favourite Embed

Satellite Type and Status

DEBRISIN ORBIT

Key statistics

Satellite SCOUT A DEB at a glance.

Uptime

20150

Days in orbit

Revolutions

≈ 14.3

Per day

Orbit

LEO

Low Earth Orbit

Inclination

89.9

Latest

Satellite identification and parameters

Extended collection of information and parameters for SCOUT A DEB.

Object identification

Identified? True

Debris? True

Object name: SCOUT A DEB

International designator: 1970-067C

Object number (NORAD): 5036

Object ID (CCSDS): 5036

Country: UNITED STATES OF AMERICA (US)

Current information (Y/N): Y

RCS size: SMALL

Orbital parameters

Period: 100.667 minutes

Inclination: 89.9407 deg

SMA: 7168.326 km

Apoapsis: 807.636 km

Periapsis: 772.745 km

RAAN: 252.628 deg

Eccentricy: 0.0024337

Argument of periapsis: 21.1137 deg

Mean anomaly: 339.1058 deg

Mean motion: 14.3046147 rev/day

Mean motion (dot): 0.00004308 rev/day2

B* drag term: 0.0016459 1/REarth

Two-line elements (TLE)

Creation date: Oct. 25, 2025, 2:36 p.m.

Reference frame: TEME

Reference center: EARTH

Epoch: Oct. 25, 2025, 7:26 a.m. UTC

TLE line 0: 0 SCOUT A DEB

TLE line 1: 1 5036U 70067C 25298.30997461 .00004308 00000-0 16459-2 0 9991

TLE line 2: 2 5036 89.9407 252.6280 0024337 21.1137 339.1058 14.30461470822979

Live tracking on map

Real-time ground track for satellite SCOUT A DEB.

In-orbit conjunctions

A list of the most updated potential collisions computed for object SCOUT A DEB.

Target Orbit TCA Probability of collision Miss distance Type
FENGYUN 1C DEB SSO 2025-09-19 09:54:15 0.0002003175 195.0 (m) DEBRIS
ALOUETTE 2 HEO 2024-10-28 18:46:50 0.003301385 43.0 (m) PAYLOAD

Associated space launch

The Transit-O series of satellites that closely followed the design of Transit 5C-1 were also called “Oscars” (Oscar is the phonetic alphabet for “O”, i. e., operational). They were also called NNS (Navy Navigation Satellite) or shortened NavSat.

SCOUT A DEB was lifted into orbit during the mission ‘Scout A | Transit-O 19’, on board a Scout A space rocket.

The launch took place on Aug. 27, 1970, 1:23 p.m. from Space Launch Complex 5.

For more information about the launch, click the button.

Launch to space Scout A | Transit-O 19
Scout A | Transit-O 19

Agency: N/A

Status: Launch Successful

Launch date: Aug. 27, 1970, 1:23 p.m. UTC

Rocket: Scout A

Launch pad: Space Launch Complex 5

Location: Vandenberg SFB, CA, USA

...

Latest news about this satellite

There are no fresh news available about this satellite. Check back as we update our databases every day.


Newsletter sign-up

Weekly statistics, charts and insights to help you stay on top of the space industry.